Regional Weather Roundup
Issued by NWS

Home | Current Version | Previous Version | Text Only | Print | Product List | Glossary On
Versions: 1 2 3 4 5 6 7 8 9 10 11 12 13 14 15 16 17 18 19 20 21 22 23 24 25 26 27 28 29 30 31 32 33 34 35 36 37 38 39 40 41 42 43 44 45 46 47 48 49 50
000
ASUS44 KOUN 191410
RWROK

WEATHER ROUNDUP FOR OKLAHOMA
NATIONAL WEATHER SERVICE NORMAN OK
800 AM CST THU JAN 19 2017

NOTE: "FAIR" INDICATES FEW OR NO CLOUDS BELOW 12,000 FEET WITH NO
      SIGNIFICANT WEATHER AND/OR OBSTRUCTIONS TO VISIBILITY.

OKZ001>007-009>012-014-015-017-191500-
NORTHWEST OKLAHOMA AND THE PANHANDLE

CITY           SKY/WX    TMP DP  RH WIND       PRES   REMARKS
GAGE           MOCLDY    42  40  92 S13       29.63F
GUYMON         PTCLDY    30  28  92 NW9       29.59R WCI  22
ENID/WOODRING  CLOUDY    48  46  93 SE16G24   29.71F
$$

OKZ016-021>023-033>039-044-045-191500-
SOUTHWEST OKLAHOMA

CITY           SKY/WX    TMP DP  RH WIND       PRES   REMARKS
LAWTON/REGL    FOG       43  42  97 S6        29.74F VSB 1/2
LAWTON/FT SILL FOG       43  43 100 S7        29.73S VSB 1/2
FREDERICK      CLEAR     39  39 100 S7        29.69F FOG     WCI  34
CLINTON        FOG       42  41  96 S14       29.68F VSB 1/4
HOBART         CLOUDY    43  42  97 S16       29.70F FOG
ALTUS AFB      FOG       37  37 100 SE7       29.69F VSB 3/4 WCI  32
$$

OKZ018>020-024>031-191500-
CENTRAL OKLAHOMA

CITY           SKY/WX    TMP DP  RH WIND       PRES   REMARKS
OKLAHOMA CITY  FOG       46  45  96 SE13      29.74F VSB 1/4
OKC/WILEY POST CLOUDY    47  46  97 S14       29.74F
OKC/TINKER AFB CLOUDY    46  46 100 S9        29.74F
STILLWATER     CLOUDY    48  45  89 SE9       29.75F
GUTHRIE        CLOUDY    48  46  93 S8        29.74F
$$

OKZ008-013-054>072-191500-
NORTHEAST OKLAHOMA

CITY           SKY/WX    TMP DP  RH WIND       PRES   REMARKS
TULSA          DRIZZLE   47  47 100 S7        29.81F FOG
TULSA/JONES    CLOUDY    47  46  97 SE5       29.81S FOG
BARTLESVILLE   CLOUDY    46  44  93 CALM      29.81F FOG
MUSKOGEE       CLOUDY    45  45 100 SE3       29.84S
$$

OKZ032-040>043-046>053-073>077-191500-
SOUTH CENTRAL/SOUTHEAST OKLAHOMA

CITY           SKY/WX    TMP DP  RH WIND       PRES   REMARKS
ARDMORE/DWNTWN FOG       43  43 100 S3        29.80F VSB 1/4
MCALESTER      CLOUDY    50  47  89 VRB3      29.82F
$$





USA.gov is the U.S. government's official web portal to all federal, state and local government web resources and services.